Other Public Products
Issued by NWS Charleston, SC

Current Version | Previous Version | Graphics & Text | Print | Product List | Glossary On
Versions: 1 2 3 4 5 6 7 8 9 10 11 12 13 14 15 16 17 18 19 20 21 22 23 24 25 26 27 28 29 30 31 32 33 34 35 36 37 38 39 40 41 42 43 44 45 46 47 48 49 50
731
FPUS82 KCHS 220212
OPUCHS

TEST...KCHS/KSAV Gateway Observations...TEST
National Weather Service Charleston SC
1000 PM EDT MON AUG 21 2017

NOTE: "fair" indicates few or no clouds below 12,000 feet with no
significant weather and/or obstructions to visibility.

SCZ050-WAZ558-NCZ071-TXZ119-213-PAZ071-DCZ001-FLZ074-172-MI076-
NYZ176-178-MAZ016-IL014-TNZ027-NJZ106-GAZ044-MD014-220300-

...Gateway Observations for Charleston International...

CITY           SKY/WX    TMP DP  RH WIND       PRES   REMARKS
Chas Airport   CLOUDY    76  76 100 CALM      30.15R
Seattle        MOSUNNY   79  51  37 N12       30.02F
Charlotte      PTCLDY    82  70  66 S5        30.18R
Dallas DFW     PTCLDY    88  69  53 SE9       30.01R HX  92
Dallas Love    PTCLDY    89  70  53 SE14      30.02R HX  94
Philladelphia  CLOUDY    79  72  79 S6        30.13S
Wash National  MOCLDY    78  72  81 S7        30.13R
Baltimore      MOCLDY    75  73  93 S5        30.12R
Miami          PTCLDY    85  75  72 VRB5      30.09R HX  93
Detroit        MOCLDY    80  71  74 SW9       30.00S
Newark         PTCLDY    79  70  74 SW9       30.11S
Laguardia      PTCLDY    81  71  71 SW12      30.11R
J F K          CLOUDY    77  73  87 SW10      30.12S
Boston Logan   CLEAR     77  64  64 SW13      30.07S
Ft. Lauderdale TSTM      79  77  94 NE9       30.09R
Chicago O`Hare CLOUDY    79  66  64 SW7G16    29.95F
Chicago Midway CLOUDY    78  71  79 SW7       29.96F
Houston Bush   PTCLDY    81  75  82 SE7       30.05R
Houston Hobby  PTCLDY    87  74  64 SE7       30.05R HX  95
Nashville      PTCLDY    83  70  64 CALM      30.13R
Atlanta        PTCLDY    84  70  62 SE5       30.18R

$$

GAZ044-118-TXZ119-213-NCZ071-DCZ001-MDZ014-506-PAZ021-071-NJZ106-
NYZ176-178-MAZ106-OHZ011-021-055-MIZ076-KYZ091-ILZ014-INZ047-
MNZ060-ONZ431-220300-

...Gateway Observations for Savannah International...

CITY           SKY/WX    TMP DP  RH WIND       PRES   REMARKS
Savannah Arpt  MOCLDY    77  74  90 CALM      30.15S
Atlanta        PTCLDY    84  70  62 SE5       30.18R
Charlotte      PTCLDY    82  70  66 S5        30.18R
Dallas DFW     PTCLDY    88  69  53 SE9       30.01R HX  92
Houston Bush   PTCLDY    81  75  82 SE7       30.05R
Wash National  MOCLDY    78  72  81 S7        30.13R
Wash Dulles    PTCLDY    75  73  93 SW5       30.14S
Baltimore      MOCLDY    75  73  93 S5        30.12R
Philadelphia   CLOUDY    79  72  79 S6        30.13S
Newark         PTCLDY    79  70  74 SW9       30.11S
Laguardia      PTCLDY    81  71  71 SW12      30.11R
J F K          CLOUDY    77  73  87 SW10      30.12S
Boston         CLEAR     77  64  64 SW13      30.07S
Pittsburg      PTCLDY    77  73  87 S6        30.13R
Akron          PTCLDY    79  69  71 S7        30.10R
Cleveland      PTCLDY    82  69  64 S6        30.07R
Cincinnati     CLOUDY    78  72  81 S6        30.09S
Columbus       CLOUDY    77  70  77 S8        30.08F
Detroit        MOCLDY    80  71  74 SW9       30.00S
Chicago O`Hare CLOUDY    79  66  64 SW7G16    29.95F
Minneapolis    CLOUDY    69  63  81 SW8       29.86F
Indianapolis   CLOUDY    75  72  90 S7        30.05F
Toronto Canada MOCLDY    79  66  65 S9        30.00S

$$




USA.gov is the U.S. government's official web portal to all federal, state and local government web resources and services.